Regional Weather Roundup
Issued by NWS Albany, NY

Home | Current Version | Previous Version | Graphics & Text | Print | Product List | Glossary Off
Versions: 1 2 3 4 5 6 7 8 9 10 11 12 13 14 15 16 17 18 19 20 21 22 23 24 25 26 27 28 29 30 31 32 33 34 35 36 37 38 39 40 41 42 43 44 45 46 47 48 49 50

000
ASUS41 KALY 312210
RWRALY

NEW YORK STATE HOURLY WEATHER ROUNDUP
NATIONAL WEATHER SERVICE ALBANY NY
600 PM EDT SUN AUG 31 2014

NOTE: "FAIR" INDICATES FEW OR NO CLOUDS BELOW 12,000 FEET WITH NO
SIGNIFICANT WEATHER AND/OR NO OBSTRUCTIONS TO VISIBILITY.

NYZ032-033-038>043-046>054-057>066-NYZ062>081-312300-
EAST


CITY           SKY/WX    TMP DP  RH WIND       PRES   REMARKS
ALBANY         CLOUDY    76  71  85 S7        29.95S
GLENS FALLS    CLOUDY    73  71  93 CALM      29.94S FOG
POUGHKEEPSIE   HVY RAIN  73  70  90 S6        29.97R FOG
NEWBURGH       MOSUNNY   72  70  94 W9        30.00R
MONTGOMERY     LGT RAIN  73  71  93 SE5       29.97F
WHITE PLAINS   PTSUNNY   76  72  87 CALM      29.98S
ISLIP          CLOUDY    78  71  79 S12G20    29.97S THUNDER
NEW YORK CITY  LGT RAIN  77  73  88 VRB5      29.97S
CENTRAL PARK   LGT RAIN  75  73  93 CALM      30.00S FOG
$$

NYZ005>009-017-018-044>046-055-056-312300-
CENTRAL


CITY           SKY/WX    TMP DP  RH WIND       PRES   REMARKS
FULTON         PTSUNNY   77  68  73 SW8       29.92S
SYRACUSE       CLOUDY    79  69  71 W12G17    29.93R
ROME           CLOUDY    76  71  85 W5        29.94S
ELMIRA         CLOUDY    77  71  82 W6        29.97R
BINGHAMTON     CLOUDY    73  70  90 SW8       30.01S
MONTICELLO     CLOUDY    73  68  83 SW6       30.02F
$$

NYZ026>034-041>043-312300-
NORTH


CITY           SKY/WX    TMP DP  RH WIND       PRES   REMARKS
WATERTOWN      PTSUNNY   76  67  73 SW12      29.90R
FORT DRUM      NOT AVBL
MASSENA        PTSUNNY   74  71  91 S9        29.86S
SARANAC LAKE   LGT RAIN  70  66  87 MISG      29.94S
PLATTSBURGH    CLOUDY    72  70  93 S6        29.88F
$$

NYZ001>004-010>016-019>021-312300-
WEST


CITY           SKY/WX    TMP DP  RH WIND       PRES   REMARKS
NIAGARA FALLS  PTSUNNY   77  68  73 SW15      29.93S
BUFFALO        CLOUDY    73  68  84 SW16      29.95S
DUNKIRK        CLOUDY    75  68  78 SW15G26   29.97R
JAMESTOWN      CLOUDY    70  66  88 S5        30.03S
WELLSVILLE     LGT RAIN  69  66  90 SW5       30.06R
ROCHESTER      CLOUDY    77  69  76 SW12      29.93S
PENN YAN       CLOUDY    76  69  79 SW8       29.97S
$$

             KEY
       WCI = WIND CHILL INDEX
       VSB = VISIBILITY
       HX  = HEAT INDEX
$$



USA.gov is the U.S. government's official web portal to all federal, state and local government web resources and services.